Location: Unspecified
(49.2170°N, 0.0000°E)
Time: 20:14:18
(UTC+00:00)

Transit 2A - Pass Details

Date: 25 June 2019
Orbit: 595 x 964 km, 66.7° (Epoch: 22 July)

Event Time Altitude Azimuth Distance (km) Brightness Sun altitude
Rises 07:25:27 0° 324° (NW) 3,500 9.1 30.8°
Reaches altitude 10° 07:28:07 10° 329° (NNW) 2,505 8.5 31.3°
Maximum altitude 07:33:48 57° 48° (NE) 939 7.5 32.2°
Drops below altitude 10° 07:38:52 10° 127° (SE) 2,243 9.3 33.0°
Sets 07:41:09 0° 131° (SE) 3,105 9.8 33.4°
